Location: Elkol
(41.7238°N, 110.6124°W)
Time: 23:26:19
(UTC+00:00)

BlueWalker 3 - Pass Details

Date: 11 December 2022
Orbit: 499 x 517 km, 53.2° (Epoch: 05 February)

Event Time Altitude Azimuth Distance (km) Brightness Sun altitude
Rises 02:25:58 0° 298° (WNW) 2,619 6.4 -27.9°
Reaches altitude 10° 02:28:27 10° 285° (WNW) 1,725 5.5 -28.4°
Enters shadow 02:31:35 24° 231° (SW) 1,068 4.0 -28.9°
